Regional Weather Roundup
Issued by NWS

Home | Current Version | Previous Version | Text Only | Print | Product List | Glossary On
Versions: 1 2 3 4 5 6 7 8 9 10 11 12 13 14 15 16 17 18 19 20 21 22 23 24 25 26 27 28 29 30 31 32 33 34 35 36 37 38 39 40 41 42 43 44 45 46 47 48 49 50
000
ASUS45 KABQ 110110
RWRNM
NEW MEXICO REGIONAL WEATHER ROUNDUP
NATIONAL WEATHER SERVICE ALBUQUERQUE NM
600 PM MST SAT DEC 10 2016

NOTE: "FAIR" MEANS FEW OR NO CLOUDS BELOW 12,000 FEET AGL WITH NO
       SIGNIFICANT WEATHER OR OBSTRUCTIONS TO VISION.

      THIS PRODUCT IS RELEASED AS TWO VERSIONS.  ONE VERSION NEAR
      THE TOP OF THE HOUR CONTAINING PRELIMINARY DATA FROM ALBUQUERQUE
      AND OTHER STATIONS.  A FINAL VERSION WITH ADDITIONAL DATA IS
      ISSUED ABOUT 10 MINUTES AFTER THE HOUR.

NMZ501-503-504-510>518-110200-
NORTHWEST PLATEAU/NORTHCENTRAL MOUNTAINS

CITY           SKY/WX    TMP DP  RH WIND       PRES   REMARKS
FARMINGTON     FAIR      43  28  55 N6        30.00F
LOS ALAMOS     MOCLDY    39  27  63 S9        30.05S WCI  33
SANTA FE       FAIR      43  25  49 NW5       30.03S
TAOS           FAIR      36  19  51 CALM      30.05R
ANGEL FIRE     FAIR      40  15  34 W22G28    30.01F WCI  31

$$
NMZ402-403-502-505>509-110200-
WESTCENTRAL MOUNTAINS/SOUTHWEST MOUNTAINS

CITY           SKY/WX    TMP DP  RH WIND       PRES   REMARKS
GALLUP         FAIR      43  21  41 W8        30.07S
GRANTS         FAIR      39  16  38 CALM      30.09S
SILVER CITY    FAIR      48  28  45 NW12      30.13S

$$
NMZ407-409-411-412-110200-
SOUTHERN DESERTS

CITY           SKY/WX    TMP DP  RH WIND       PRES   REMARKS
DEMING         FAIR      52  36  54 SW6       30.10F
LAS CRUCES     FAIR      47  33  56 CALM      30.12R
HOLLOMAN AFB   FAIR      49  33  54 S5        30.11F
T OR C         FAIR      51  32  48 CALM      30.06S

$$
NMZ519>523-110200-
CENTRAL VALLEYS/CENTRAL HIGHLANDS

CITY           SKY/WX    TMP DP  RH WIND       PRES   REMARKS
ALBUQUERQUE    FAIR      43  28  55 SE3       30.04F
DOUBLE EAGLE   MOCLDY    36  25  64 W7        30.05F WCI  30
MORIARTY ARPT  FAIR      41  19  41 SW9       30.04S
CLINES CORNERS FAIR      39  19  44 SW21      30.03F WCI  29
BELEN          FAIR      46  29  51 S12       30.03F
SOCORRO        FAIR      47  31  53 S8        30.04F

$$
NMZ524>526-539-540-110200-
SOUTHCENTRAL MOUNTAINS

CITY           SKY/WX    TMP DP  RH WIND       PRES   REMARKS
RUIDOSO        FAIR      46  19  34 W7        30.11S

$$
NMZ527>531-110200-
NORTHEAST HIGHLANDS/NORTHEAST PLAINS

CITY           SKY/WX    TMP DP  RH WIND       PRES   REMARKS
LAS VEGAS      FAIR      48  12  23 S21G32    29.95F
RATON          FAIR      50   9  19 SW13      29.85F
CLAYTON        FAIR      49  27  42 S7        29.81F

$$
NMZ532>537-110200-
EASTCENTRAL PLAINS

CITY           SKY/WX    TMP DP  RH WIND       PRES   REMARKS
TUCUMCARI      FAIR      55  27  34 SW17G28   29.85F
CANNON AFB     FAIR      44  31  60 SW10      29.95S
CLOVIS AIRPORT FAIR      48  30  49 SW12      29.94F

$$
NMZ028-029-538-110200-
SOUTHEAST PLAINS

CITY           SKY/WX    TMP DP  RH WIND       PRES   REMARKS
ROSWELL        FAIR      44  34  67 NW6       29.97F
ARTESIA        FAIR      50  39  66 S9        29.98S
CARLSBAD       NOT AVBL


$$



USA.gov is the U.S. government's official web portal to all federal, state and local government web resources and services.